Location: Unspecified
(0.0000°N, 0.0000°E)
Time: 02:10:38
(UTC+00:00)

STARLINK-1528 - Pass Details

Date: 24 February 2021
Orbit: 317 x 319 km, 53.1° (Epoch: 23 February)

Event Time Altitude Azimuth Distance (km) Brightness Sun altitude
Exits shadow 05:21:12 - 347° (NNW) 1,648 5.8 -12.8°
Reaches altitude 10° 05:22:21 10° 357° (N) 1,218 5.3 -12.5°
Maximum altitude 05:24:40 25° 56° (NE) 690 4.7 -12.0°
Drops below altitude 10° 05:27:00 10° 115° (ESE) 1,227 6.8 -11.4°
Sets 05:29:09 0° 129° (SE) 2,063 7.7 -10.9°
